Flag for United Kingdom Weather past 2 weeks in Liverpool, England, United Kingdom

Now
48 °F

Scattered clouds.


Feels Like: 44 °F
Forecast: 46 / 59 °F
Wind: 9 mph from East

Location: Liverpool Airport


UV Index: 0 (Low)

Visibility: 3 mi


Pressure: 29.98 "Hg

Humidity: 87%

Dew point: 45 °F

Location of LiverpoolLocation

Historic Weather in Liverpool

°F

Liverpool temperature yesterday

Maximum temperature yesterday: 61 °F (at 2:50 PM)
Minimum temperature yesterday: 43 °F (at 4:50 AM)
Average temperature yesterday: 53 °F

Past Weeks' High & Low Weather Summary

 TemperatureHumidityPressure
High66 °F (Apr 21, 2:50 PM)100% (Apr 24, 3:20 AM)30.45 "Hg (Apr 24, 3:20 AM)
Low36 °F (Apr 19, 6:20 AM)47% (Apr 18, 3:20 PM)29.68 "Hg (Apr 20, 8:20 PM)
Average51 °F75%30.07 "Hg
* Reported Apr 10 6:20 AM — Apr 25 6:50 AM, Liverpool, Weather by CustomWeather, © 2014

Note: Actual official high and low records may vary slightly from our data, if they occured in-between our weather recording intervals... More about our weather records

Advertising

Historic Weather Conditions — Data for Previous 24 hours

 ConditionsComfort  
Time TempWeatherWind HumidityBarometerVisibility
6:50 AM
Apr 25
48 °FHaze.12 mph87%30.01 "Hg3 mi
6:20 AM46 °FHaze.13 mph93%30.01 "Hg3 mi
5:50 AM46 °FHaze.10 mph93%30.01 "Hg3 mi
5:20 AM46 °FClear.13 mph93%30.01 "Hg4 mi
4:50 AM48 °FClear.10 mph94%30.01 "Hg10 mi
4:20 AM48 °FClear.8 mph87%30.01 "Hg10 mi
3:50 AM48 °FClear.7 mph94%30.01 "Hg10 mi
3:20 AM50 °FClear.6 mph82%30.01 "Hg10 mi
2:50 AM48 °FClear.7 mph87%30.01 "Hg10 mi
2:20 AM50 °FClear.6 mph82%30.01 "Hg10 mi
1:50 AM50 °FPassing clouds.5 mph88%30.04 "HgN/A
1:20 AM50 °FPassing clouds.5 mph88%30.04 "HgN/A
12:50 AM50 °FClear.8 mph88%30.04 "Hg10 mi
12:20 AM50 °FPassing clouds.8 mph88%30.04 "HgN/A
11:50 PM
Apr 24
54 °FPassing clouds.6 mph77%30.04 "HgN/A
11:20 PM52 °FClear.6 mph82%30.04 "Hg10 mi
10:50 PM54 °FClear.6 mph77%30.04 "Hg10 mi
10:20 PM54 °FClear.8 mph82%30.04 "Hg10 mi
9:50 PM54 °FClear.8 mph82%30.04 "Hg10 mi
9:20 PM55 °FSunny.8 mph77%30.04 "Hg10 mi
8:50 PM55 °FPassing clouds.9 mph72%30.04 "HgN/A
8:20 PM57 °FPassing clouds.8 mph72%30.04 "HgN/A
7:50 PM57 °FScattered clouds.8 mph67%30.04 "HgN/A
7:20 PM59 °FScattered clouds.8 mph63%30.04 "HgN/A
6:50 PM59 °FScattered clouds.2 mph63%30.04 "HgN/A
6:20 PM61 °FPassing clouds.2 mph48%30.04 "HgN/A
5:50 PM61 °FPassing clouds.3 mph55%30.04 "HgN/A
5:20 PM61 °FPassing clouds.3 mph52%30.07 "HgN/A
4:50 PM61 °FPassing clouds.5 mph52%30.07 "HgN/A
4:20 PM61 °FPassing clouds.5 mph48%30.07 "HgN/A
3:50 PM61 °FPassing clouds.5 mph52%30.07 "HgN/A
3:20 PM61 °FPassing clouds.3 mph55%30.07 "HgN/A
2:50 PM61 °FPassing clouds.5 mph59%30.07 "HgN/A
2:20 PM59 °FPassing clouds.5 mph63%30.09 "HgN/A
1:50 PM59 °FPassing clouds.7 mph68%30.09 "HgN/A
1:20 PM59 °FPassing clouds.6 mph68%30.09 "HgN/A
12:50 PM57 °FPassing clouds.5 mph72%30.09 "HgN/A
12:20 PM57 °FPassing clouds.5 mph67%30.09 "HgN/A
11:50 AM57 °FPassing clouds.6 mph67%30.09 "HgN/A
11:20 AM55 °FPassing clouds.3 mph72%30.09 "HgN/A
10:50 AM55 °FPassing clouds.3 mph72%30.12 "HgN/A
10:20 AM54 °FPassing clouds.5 mph77%30.12 "HgN/A
9:50 AM52 °FPassing clouds.5 mph88%30.12 "HgN/A
9:20 AM52 °FClear.3 mph82%30.12 "HgN/A
8:50 AM50 °FClear.5 mph88%30.12 "HgN/A
8:20 AM48 °FPassing clouds.6 mph87%30.09 "HgN/A
7:50 AM48 °FSunny.3 mph87%30.09 "Hg10 mi
7:20 AM46 °FSunny.5 mph93%30.09 "Hg10 mi
Weather by CustomWeather, © 2014

See weather overview